SCP
-0 0 -0 -0 -0 -0 -0 -0 -0 -0 -0 -0 -0 -1 -1 -0 -0 -0 -0 -0 -0 -0 -0 -0 -0 -0 -0 -0 -0 -0 -0 -0 -0 -0 0 0 0 0 0 0 0 0 0
-0 -0 -0 -0 -1 -0 -0 -0 -0 -0 -0 -0 -0 -0 -0 -0 -0 -0 -0 -0 -0 -0 -0 -0 -0 -0 -0 -0 -0 -0 -0 0 0 0 0 0 0 0 0 0 0 0 0
-0 -0 -0 -0 -0 -0 -0 -0 -0 -0 0 -0 -0 -0 -0 -0 -0 -0 -0 -0 -0 -0 -0 -0 -0 -0 0 0 -0 -0 0 0 0 0 0 0 0 0 0 0 0 0 0
-0 -0 -0 -1 -1 -0 -0 -0 -0 -0 0 -0 -0 -0 -0 -0 -0 -0 -0 -0 -0 -0 -0 -0 0 0 0 -0 0 0 0 0 0 0 0 0 0 0 0 0 0 0 0
0 0 -0 -0 -1 -0 -0 -0 -0 -0 0 -0 -0 -0 -0 -0 -0 -0 -0 -0 0 -0 -0 0 0 0 0 -0 0 0 0 0 0 0 0 0 0 0 0 0 0 0 0
0 1 -0 -0 -0 -0 -0 -0 -0 -0 -0 -0 -0 -0 -0 -0 0 0 0 0 0 0 0 0 0 0 0 -0 -0 0 0 0 0 0 0 0 0 0 0 0 0 0 0
1 1 0 -0 -0 -0 -0 -0 -0 -0 -0 -0 -0 -0 -0 -0 0 0 0 0 0 0 0 0 0 0 0 -0 -0 0 0 0 0 0 0 0 0 0 0 0 0 0 0
0 1 1 0 0 0 -0 -0 -0 -0 -0 -0 -0 -0 -0 -0 -0 0 0 0 0 0 0 0 0 0 0 -0 -0 0 0 0 0 0 0 0 0 0 0 0 0 0 0
1 1 1 1 1 1 0 0 0 -0 -0 -0 -0 -0 -0 -0 -0 -0 0 0 0 0 0 0 0 0 0 -0 -0 0 0 0 0 0 0 0 0 0 0 0 0 0 0
1 1 1 2 2 2 1 1 0 0 0 0 -0 -0 -0 -0 0 0 0 0 0 0 0 0 0 0 0 -0 -0 0 0 0 0 0 0 0 0 0 0 0 0 0 0
2 1 1 1 2 2 1 1 1 0 0 0 0 0 0 0 0 0 0 0 0 0 0 0 0 0 0 -0 -0 0 0 0 0 0 0 0 0 0 0 0 0 0 0
1 1 1 2 1 1 2 1 1 1 1 1 1 0 0 0 0 0 0 0 0 0 0 0 0 0 0 0 0 0 0 0 0 0 0 0 0 0 0 0 0 0 0
2 3 2 2 1 1 2 3 1 1 1 1 1 1 0 0 0 0 0 0 0 0 0 0 0 0 0 0 0 0 0 0 0 0 0 0 0 0 0 0 0 0 0
0 2 3 2 1 1 2 3 2 2 1 1 1 0 0 0 0 0 0 0 0 0 0 0 0 0 0 0 0 0 0 0 0 0 0 0 0 0 0 0 0 0 0
0 2 2 2 1 1 2 2 2 2 1 1 1 1 0 0 0 0 0 0 0 0 0 0 0 0 0 0 0 0 0 0 0 0 0 0 0 0 0 0 0 0 0
0 1 2 3 2 1 2 2 2 2 2 1 1 1 0 0 0 0 0 0 0 0 0 0 0 0 0 0 0 0 0 0 0 0 0 0 0 0 0 0 0 0 0
0 0 3 2 2 1 2 2 2 2 2 2 1 1 0 0 0 0 0 0 0 0 0 0 0 0 0 0 0 0 0 0 0 0 0 0 0 0 0 0 0 0 0
0 0 0 3 4 3 2 2 2 2 2 2 2 2 1 0 0 0 0 0 0 0 0 0 0 0 0 0 0 0 0 0 0 0 0 0 0 0 0 0 0 0 0
0 0 0 0 3 4 3 3 2 1 1 1 1 1 1 1 0 0 0 0 0 0 0 0 0 0 0 0 0 0 0 0 0 0 0 0 0 0 0 0 0 0 0
0 0 0 0 2 3 4 3 3 2 2 2 1 1 1 1 1 0 0 0 0 0 0 0 0 0 0 0 1 0 0 0 0 0 0 0 0 0 0 0 0 0 0
0 0 0 0 0 4 5 4 3 2 2 2 2 1 1 1 0 0 0 0 0 0 0 0 0 0 0 0 1 1 0 0 0 0 0 0 0 0 0 0 0 0 0
0 0 0 0 0 2 4 5 4 4 2 2 2 1 1 1 0 1 0 0 0 0 0 0 0 0 0 0 1 0 0 0 0 0 0 0 0 0 0 0 0 0 0
0 0 0 0 0 0 4 6 4 3 2 2 1 1 1 1 0 0 0 0 0 0 0 0 0 0 0 0 0 0 0 0 0 0 0 0 0 0 0 0 0 0 0
0 0 0 0 0 0 2 5 4 3 3 2 2 1 1 1 1 0 0 0 0 0 0 0 0 0 0 0 0 0 0 0 0 0 0 0 0 0 0 0 0 0 0
0 0 0 0 0 1 1 3 4 3 2 1 2 1 1 1 1 1 0 0 0 0 0 0 0 0 0 0 0 0 0 0 0 0 0 0 0 0 0 0 0 0 0
0 0 0 0 1 1 1 3 4 2 2 2 2 1 1 1 1 0 1 0 0 0 0 0 0 0 0 0 0 0 0 0 0 0 0 0 0 0 0 0 0 0 0
Wind_Speed_500mb
28 49 48 40 37 37 34 31 28 29 36 39 42 44 43 38 37 35 38 43 39 37 36 31 29 28 26 25 24 18 16 15 17 17 22 26 34 35 34 34 36 37 39
23 50 48 42 39 36 34 33 29 26 32 36 37 41 42 40 38 37 41 41 37 33 30 28 27 26 25 26 23 15 14 12 14 17 12 19 28 34 34 34 35 38 38
22 41 47 41 38 35 33 32 30 27 28 37 38 38 39 40 39 42 47 42 35 30 28 27 25 23 22 23 20 14 14 12 13 19 24 16 21 26 32 34 37 38 38
15 23 44 40 39 37 34 32 30 28 25 32 37 40 41 41 42 48 47 41 35 29 27 25 22 20 18 19 17 12 11 10 10 17 16 11 20 25 30 31 34 38 39
11 15 37 39 39 40 35 32 32 29 25 30 36 40 42 44 46 48 44 38 32 27 27 23 19 17 16 16 16 11 8 6 7 5 11 8 14 18 25 28 34 38 40
15 14 34 37 38 40 38 34 34 32 27 27 34 37 40 43 45 45 42 39 33 28 23 17 14 13 13 13 13 10 8 4 3 9 9 3 6 15 24 27 34 36 39
21 17 30 38 36 37 38 36 34 34 31 29 31 35 38 41 41 42 42 38 32 27 20 14 12 9 9 10 10 9 8 6 3 10 6 2 4 14 22 29 34 35 36
11 10 22 41 37 36 39 38 36 36 35 32 31 34 37 39 41 42 41 38 33 28 22 16 11 8 7 7 7 7 8 8 8 7 4 4 9 12 18 28 31 33 34
3 5 19 28 43 39 39 41 40 39 38 35 33 33 37 39 41 41 39 36 33 28 22 16 12 10 8 5 4 4 6 7 5 3 3 10 7 9 15 26 28 30 32
8 10 10 30 42 48 43 43 43 42 40 39 36 35 36 38 40 39 38 36 32 27 22 17 15 14 9 5 4 4 5 4 5 5 8 10 8 9 19 24 28 30 29
18 17 14 18 30 50 46 45 47 46 44 41 39 39 39 41 42 41 39 36 33 29 24 19 18 15 10 6 8 8 7 6 8 11 16 12 13 17 16 22 25 27 27
27 25 24 23 26 39 50 52 52 52 51 48 45 44 43 42 43 43 41 38 36 31 27 23 20 17 12 9 18 11 9 6 9 14 18 12 14 12 11 19 24 25 26
33 34 35 34 28 35 48 60 59 58 55 52 49 48 45 44 45 46 44 44 42 37 32 28 24 19 14 15 22 9 2 6 10 12 8 13 8 5 12 18 23 24 23
32 34 44 39 36 38 37 56 65 61 59 58 55 52 51 51 50 48 48 45 43 39 34 31 26 22 19 18 30 17 5 6 9 12 13 10 4 6 13 17 21 22 23
40 30 34 44 41 44 46 40 60 59 60 59 57 56 56 55 53 52 50 47 44 40 37 34 29 24 21 24 25 20 10 8 5 11 19 6 1 6 10 13 15 21 24
47 40 35 46 42 45 53 49 47 55 57 59 60 60 59 58 57 55 50 47 43 39 39 36 32 25 23 22 16 24 16 12 11 17 11 4 8 7 10 14 15 20 25
45 50 50 47 45 48 46 56 57 54 51 52 63 63 63 62 61 58 53 45 43 31 32 34 33 30 24 21 10 20 23 15 15 14 6 6 9 10 6 12 14 18 20
52 54 46 59 52 51 51 56 67 58 61 60 55 60 66 67 65 64 59 46 42 32 34 36 35 29 23 16 14 24 22 20 15 11 9 6 6 10 7 10 13 15 14
62 58 60 51 54 61 58 58 56 74 67 63 64 60 60 69 69 72 63 51 46 42 40 39 38 32 26 21 24 25 25 29 19 16 11 5 6 7 8 11 15 19 17
65 70 65 63 55 60 59 57 52 58 64 74 70 69 61 60 66 75 69 59 53 51 47 46 47 36 30 25 24 17 24 25 17 16 8 6 5 4 5 13 19 18 16
73 69 82 72 68 66 70 62 59 62 67 73 76 82 74 69 65 66 79 66 64 60 51 54 49 48 40 36 24 30 29 18 13 9 8 9 10 13 15 21 20 18 17
68 79 76 80 68 65 74 72 66 61 66 67 79 71 90 86 79 67 83 70 67 72 64 63 63 55 46 42 33 42 31 23 21 18 12 13 13 15 19 15 14 15 21
61 72 68 85 75 71 67 69 71 64 64 61 75 88 85 77 89 82 77 82 74 77 73 71 65 53 56 49 44 39 21 14 31 19 12 10 12 14 12 14 13 14 20
32 51 71 75 80 78 73 78 79 72 70 66 73 73 94 82 86 90 91 80 84 80 77 75 66 57 59 56 51 52 41 25 19 18 19 13 8 10 14 12 10 11 18
42 35 59 71 78 83 74 79 75 77 65 57 65 75 78 94 81 95 97 87 90 86 79 75 70 65 62 62 58 48 36 30 25 22 30 30 22 17 17 8 6 6 15
46 36 30 62 82 81 74 74 77 75 61 61 70 70 74 72 95 83 93 98 95 95 85 79 72 69 66 58 57 54 44 41 34 27 26 40 37 29 23 12 1 10 23
Wind_Direction_500mb
158 167 161 164 162 156 155 150 142 143 154 160 164 163 164 164 161 160 157 152 147 142 140 134 129 125 122 117 113 98 88 81 72 62 61 60 48 44 41 33 26 22 19
161 165 163 166 165 159 160 157 149 144 156 158 162 164 168 170 169 165 162 157 151 145 142 136 131 125 123 122 121 108 92 77 63 44 36 48 38 21 26 29 21 18 18
149 169 165 168 166 163 162 162 155 147 159 161 162 163 163 166 168 166 163 162 155 148 143 137 134 130 128 128 130 115 94 80 57 55 51 89 30 25 27 21 12 15 14
127 170 171 170 170 167 166 167 162 153 159 168 164 162 162 163 166 166 167 165 159 149 147 143 139 137 136 132 135 125 106 109 51 16 21 38 19 21 20 14 12 12 10
113 163 183 176 175 170 172 172 168 163 161 170 168 166 165 164 167 170 170 168 162 152 147 145 147 145 145 140 138 138 138 130 105 356 356 18 3 5 16 8 6 8 9
154 158 193 185 182 178 177 176 174 171 166 171 175 173 171 169 171 174 177 177 171 163 155 151 149 146 150 149 143 158 179 210 335 342 310 308 329 6 11 7 1 4 7
167 166 188 193 192 189 184 182 180 178 174 172 180 180 178 177 177 179 182 183 181 177 174 177 169 156 162 157 151 172 212 240 295 358 16 264 299 6 6 0 358 2 7
161 194 188 197 201 198 195 190 186 185 181 178 182 186 185 184 185 185 187 189 190 190 191 195 185 181 183 170 160 171 233 259 283 323 334 239 294 348 359 352 358 4 8
289 259 229 213 209 204 204 199 193 190 189 185 186 190 190 191 191 191 192 194 197 198 200 199 200 202 202 194 163 154 247 270 281 302 303 256 273 344 349 349 357 5 6
246 280 294 231 221 209 206 207 202 197 195 193 191 194 196 196 197 197 198 199 203 202 204 208 210 211 212 201 133 154 226 244 247 284 311 271 264 356 338 348 1 3 3
231 254 262 240 228 218 214 212 210 202 199 199 197 198 200 202 200 200 203 204 206 207 211 216 217 219 216 182 147 182 161 201 227 290 303 255 269 331 336 347 1 2 3
241 248 252 248 234 225 224 221 216 209 202 202 203 203 203 206 206 205 207 208 210 214 217 219 220 224 211 175 150 169 141 188 250 285 293 264 301 328 346 359 6 3 3
263 248 257 240 239 231 234 228 220 215 208 205 206 207 207 209 209 209 211 212 215 217 217 219 220 220 212 186 160 185 199 282 297 291 239 237 277 344 348 9 11 5 3
291 264 248 243 238 236 243 230 221 220 215 211 208 209 211 212 213 213 216 217 220 222 220 220 218 217 214 208 194 203 229 276 279 268 214 228 238 343 354 10 6 360 357
285 275 235 238 245 241 241 232 224 224 225 220 216 215 214 217 218 217 219 220 224 224 223 221 219 221 217 208 200 189 226 246 250 244 202 219 7 330 3 359 0 354 353
267 263 245 236 242 237 237 236 231 230 230 229 224 222 221 222 222 221 221 220 221 222 225 221 221 218 206 202 213 210 231 256 235 208 213 240 337 329 359 341 351 357 358
271 261 243 234 234 236 241 235 237 234 231 234 233 230 227 226 226 222 224 218 216 214 217 204 207 201 204 209 222 221 239 253 205 203 238 319 334 338 323 350 338 336 347
253 254 262 239 235 231 240 240 235 231 237 234 240 238 233 229 227 226 223 218 210 200 194 193 195 200 202 224 229 223 229 249 228 241 276 303 327 2 324 332 302 324 325
250 252 246 248 248 244 232 234 240 237 241 238 237 241 237 231 226 226 224 219 213 202 203 208 206 210 214 233 228 223 246 226 235 240 249 273 334 348 300 267 290 310 325
263 251 247 242 245 239 230 232 239 237 239 235 235 242 238 233 226 223 221 219 221 211 212 220 208 206 209 220 211 221 200 200 244 227 237 287 320 226 264 246 276 288 293
266 259 247 241 237 235 226 226 230 232 238 236 237 234 243 237 226 226 219 220 221 217 218 211 199 209 228 204 210 180 187 182 206 215 233 270 251 233 240 244 264 295 312
270 258 250 237 234 227 231 232 233 249 253 241 241 233 234 236 233 229 219 217 217 218 218 212 217 224 212 211 210 196 171 173 185 193 232 259 251 245 260 241 253 289 320
266 258 248 237 234 228 232 237 231 239 246 245 238 239 233 234 233 228 224 220 216 213 217 218 222 216 202 206 213 207 177 192 187 179 205 220 234 261 237 223 252 291 319
328 276 245 238 235 235 235 236 232 233 243 252 250 245 238 236 232 225 227 224 219 216 219 222 222 214 203 206 206 216 226 234 179 173 184 179 217 235 229 228 260 303 329
344 296 263 246 241 237 235 233 235 234 240 259 261 248 243 237 235 228 227 224 221 215 219 221 220 214 211 211 213 208 216 225 206 190 180 167 165 170 195 210 233 331 331
14 351 299 259 248 236 228 227 237 235 239 259 262 248 242 247 238 235 224 224 223 215 216 219 221 217 219 218 216 220 225 221 217 211 183 173 176 166 179 184 220 336 343
Wind_Speed_850mb
28 49 48 40 37 37 34 31 28 29 36 39 42 44 43 38 37 35 38 43 39 37 36 31 29 28 26 25 24 18 16 15 17 17 22 26 34 35 34 34 36 37 39
23 50 48 42 39 36 34 33 29 26 32 36 37 41 42 40 38 37 41 41 37 33 30 28 27 26 25 26 23 15 14 12 14 17 12 19 28 34 34 34 35 38 38
22 41 47 41 38 35 33 32 30 27 28 37 38 38 39 40 39 42 47 42 35 30 28 27 25 23 22 23 20 14 14 12 13 19 24 16 21 26 32 34 37 38 38
15 23 44 40 39 37 34 32 30 28 25 32 37 40 41 41 42 48 47 41 35 29 27 25 22 20 18 19 17 12 11 10 10 17 16 11 20 25 30 31 34 38 39
11 15 37 39 39 40 35 32 32 29 25 30 36 40 42 44 46 48 44 38 32 27 27 23 19 17 16 16 16 11 8 6 7 5 11 8 14 18 25 28 34 38 40
15 14 34 37 38 40 38 34 34 32 27 27 34 37 40 43 45 45 42 39 33 28 23 17 14 13 13 13 13 10 8 4 3 9 9 3 6 15 24 27 34 36 39
21 17 30 38 36 37 38 36 34 34 31 29 31 35 38 41 41 42 42 38 32 27 20 14 12 9 9 10 10 9 8 6 3 10 6 2 4 14 22 29 34 35 36
11 10 22 41 37 36 39 38 36 36 35 32 31 34 37 39 41 42 41 38 33 28 22 16 11 8 7 7 7 7 8 8 8 7 4 4 9 12 18 28 31 33 34
3 5 19 28 43 39 39 41 40 39 38 35 33 33 37 39 41 41 39 36 33 28 22 16 12 10 8 5 4 4 6 7 5 3 3 10 7 9 15 26 28 30 32
8 10 10 30 42 48 43 43 43 42 40 39 36 35 36 38 40 39 38 36 32 27 22 17 15 14 9 5 4 4 5 4 5 5 8 10 8 9 19 24 28 30 29
18 17 14 18 30 50 46 45 47 46 44 41 39 39 39 41 42 41 39 36 33 29 24 19 18 15 10 6 8 8 7 6 8 11 16 12 13 17 16 22 25 27 27
27 25 24 23 26 39 50 52 52 52 51 48 45 44 43 42 43 43 41 38 36 31 27 23 20 17 12 9 18 11 9 6 9 14 18 12 14 12 11 19 24 25 26
33 34 35 34 28 35 48 60 59 58 55 52 49 48 45 44 45 46 44 44 42 37 32 28 24 19 14 15 22 9 2 6 10 12 8 13 8 5 12 18 23 24 23
32 34 44 39 36 38 37 56 65 61 59 58 55 52 51 51 50 48 48 45 43 39 34 31 26 22 19 18 30 17 5 6 9 12 13 10 4 6 13 17 21 22 23
40 30 34 44 41 44 46 40 60 59 60 59 57 56 56 55 53 52 50 47 44 40 37 34 29 24 21 24 25 20 10 8 5 11 19 6 1 6 10 13 15 21 24
47 40 35 46 42 45 53 49 47 55 57 59 60 60 59 58 57 55 50 47 43 39 39 36 32 25 23 22 16 24 16 12 11 17 11 4 8 7 10 14 15 20 25
45 50 50 47 45 48 46 56 57 54 51 52 63 63 63 62 61 58 53 45 43 31 32 34 33 30 24 21 10 20 23 15 15 14 6 6 9 10 6 12 14 18 20
52 54 46 59 52 51 51 56 67 58 61 60 55 60 66 67 65 64 59 46 42 32 34 36 35 29 23 16 14 24 22 20 15 11 9 6 6 10 7 10 13 15 14
62 58 60 51 54 61 58 58 56 74 67 63 64 60 60 69 69 72 63 51 46 42 40 39 38 32 26 21 24 25 25 29 19 16 11 5 6 7 8 11 15 19 17
65 70 65 63 55 60 59 57 52 58 64 74 70 69 61 60 66 75 69 59 53 51 47 46 47 36 30 25 24 17 24 25 17 16 8 6 5 4 5 13 19 18 16
73 69 82 72 68 66 70 62 59 62 67 73 76 82 74 69 65 66 79 66 64 60 51 54 49 48 40 36 24 30 29 18 13 9 8 9 10 13 15 21 20 18 17
68 79 76 80 68 65 74 72 66 61 66 67 79 71 90 86 79 67 83 70 67 72 64 63 63 55 46 42 33 42 31 23 21 18 12 13 13 15 19 15 14 15 21
61 72 68 85 75 71 67 69 71 64 64 61 75 88 85 77 89 82 77 82 74 77 73 71 65 53 56 49 44 39 21 14 31 19 12 10 12 14 12 14 13 14 20
32 51 71 75 80 78 73 78 79 72 70 66 73 73 94 82 86 90 91 80 84 80 77 75 66 57 59 56 51 52 41 25 19 18 19 13 8 10 14 12 10 11 18
42 35 59 71 78 83 74 79 75 77 65 57 65 75 78 94 81 95 97 87 90 86 79 75 70 65 62 62 58 48 36 30 25 22 30 30 22 17 17 8 6 6 15
46 36 30 62 82 81 74 74 77 75 61 61 70 70 74 72 95 83 93 98 95 95 85 79 72 69 66 58 57 54 44 41 34 27 26 40 37 29 23 12 1 10 23
Wind_Direction_850mb
158 167 161 164 162 156 155 150 142 143 154 160 164 163 164 164 161 160 157 152 147 142 140 134 129 125 122 117 113 98 88 81 72 62 61 60 48 44 41 33 26 22 19
161 165 163 166 165 159 160 157 149 144 156 158 162 164 168 170 169 165 162 157 151 145 142 136 131 125 123 122 121 108 92 77 63 44 36 48 38 21 26 29 21 18 18
149 169 165 168 166 163 162 162 155 147 159 161 162 163 163 166 168 166 163 162 155 148 143 137 134 130 128 128 130 115 94 80 57 55 51 89 30 25 27 21 12 15 14
127 170 171 170 170 167 166 167 162 153 159 168 164 162 162 163 166 166 167 165 159 149 147 143 139 137 136 132 135 125 106 109 51 16 21 38 19 21 20 14 12 12 10
113 163 183 176 175 170 172 172 168 163 161 170 168 166 165 164 167 170 170 168 162 152 147 145 147 145 145 140 138 138 138 130 105 356 356 18 3 5 16 8 6 8 9
154 158 193 185 182 178 177 176 174 171 166 171 175 173 171 169 171 174 177 177 171 163 155 151 149 146 150 149 143 158 179 210 335 342 310 308 329 6 11 7 1 4 7
167 166 188 193 192 189 184 182 180 178 174 172 180 180 178 177 177 179 182 183 181 177 174 177 169 156 162 157 151 172 212 240 295 358 16 264 299 6 6 0 358 2 7
161 194 188 197 201 198 195 190 186 185 181 178 182 186 185 184 185 185 187 189 190 190 191 195 185 181 183 170 160 171 233 259 283 323 334 239 294 348 359 352 358 4 8
289 259 229 213 209 204 204 199 193 190 189 185 186 190 190 191 191 191 192 194 197 198 200 199 200 202 202 194 163 154 247 270 281 302 303 256 273 344 349 349 357 5 6
246 280 294 231 221 209 206 207 202 197 195 193 191 194 196 196 197 197 198 199 203 202 204 208 210 211 212 201 133 154 226 244 247 284 311 271 264 356 338 348 1 3 3
231 254 262 240 228 218 214 212 210 202 199 199 197 198 200 202 200 200 203 204 206 207 211 216 217 219 216 182 147 182 161 201 227 290 303 255 269 331 336 347 1 2 3
241 248 252 248 234 225 224 221 216 209 202 202 203 203 203 206 206 205 207 208 210 214 217 219 220 224 211 175 150 169 141 188 250 285 293 264 301 328 346 359 6 3 3
263 248 257 240 239 231 234 228 220 215 208 205 206 207 207 209 209 209 211 212 215 217 217 219 220 220 212 186 160 185 199 282 297 291 239 237 277 344 348 9 11 5 3
291 264 248 243 238 236 243 230 221 220 215 211 208 209 211 212 213 213 216 217 220 222 220 220 218 217 214 208 194 203 229 276 279 268 214 228 238 343 354 10 6 360 357
285 275 235 238 245 241 241 232 224 224 225 220 216 215 214 217 218 217 219 220 224 224 223 221 219 221 217 208 200 189 226 246 250 244 202 219 7 330 3 359 0 354 353
267 263 245 236 242 237 237 236 231 230 230 229 224 222 221 222 222 221 221 220 221 222 225 221 221 218 206 202 213 210 231 256 235 208 213 240 337 329 359 341 351 357 358
271 261 243 234 234 236 241 235 237 234 231 234 233 230 227 226 226 222 224 218 216 214 217 204 207 201 204 209 222 221 239 253 205 203 238 319 334 338 323 350 338 336 347
253 254 262 239 235 231 240 240 235 231 237 234 240 238 233 229 227 226 223 218 210 200 194 193 195 200 202 224 229 223 229 249 228 241 276 303 327 2 324 332 302 324 325
250 252 246 248 248 244 232 234 240 237 241 238 237 241 237 231 226 226 224 219 213 202 203 208 206 210 214 233 228 223 246 226 235 240 249 273 334 348 300 267 290 310 325
263 251 247 242 245 239 230 232 239 237 239 235 235 242 238 233 226 223 221 219 221 211 212 220 208 206 209 220 211 221 200 200 244 227 237 287 320 226 264 246 276 288 293
266 259 247 241 237 235 226 226 230 232 238 236 237 234 243 237 226 226 219 220 221 217 218 211 199 209 228 204 210 180 187 182 206 215 233 270 251 233 240 244 264 295 312
270 258 250 237 234 227 231 232 233 249 253 241 241 233 234 236 233 229 219 217 217 218 218 212 217 224 212 211 210 196 171 173 185 193 232 259 251 245 260 241 253 289 320
266 258 248 237 234 228 232 237 231 239 246 245 238 239 233 234 233 228 224 220 216 213 217 218 222 216 202 206 213 207 177 192 187 179 205 220 234 261 237 223 252 291 319
328 276 245 238 235 235 235 236 232 233 243 252 250 245 238 236 232 225 227 224 219 216 219 222 222 214 203 206 206 216 226 234 179 173 184 179 217 235 229 228 260 303 329
344 296 263 246 241 237 235 233 235 234 240 259 261 248 243 237 235 228 227 224 221 215 219 221 220 214 211 211 213 208 216 225 206 190 180 167 165 170 195 210 233 331 331
14 351 299 259 248 236 228 227 237 235 239 259 262 248 242 247 238 235 224 224 223 215 216 219 221 217 219 218 216 220 225 221 217 211 183 173 176 166 179 184 220 336 343